Time,TemperatureF,DewpointF,PressureIn,WindDirection,WindDirectionDegrees,WindSpeedMPH,WindSpeedGustMPH,Humidity,HourlyPrecipIn,Conditions,Clouds,dailyrainin,SolarRadiationWatts/m^2,SoftwareType,DateUTC
2013-01-12 00:00:00,73.3,68.9,30.11,SE,138,0.0,0.0,86,0.00,,FEW060,0.00,0.00,VWS V14.00,2013-01-12 05:00:00,
2013-01-12 00:01:00,73.3,68.9,30.11,SE,138,0.0,0.0,86,0.00,,FEW060,0.00,0.00,VWS V14.00,2013-01-12 05:01:00,
2013-01-12 00:06:00,73.3,68.9,30.11,SE,143,0.0,7.0,86,0.00,,FEW060,0.00,0.00,VWS V14.00,2013-01-12 05:06:00,
2013-01-12 00:11:00,73.3,69.2,30.11,SE,145,4.0,6.0,87,0.00,,FEW060,0.00,0.00,VWS V14.00,2013-01-12 05:11:00,
2013-01-12 00:16:00,73.5,69.1,30.11,SSE,163,2.0,10.0,86,0.00,,FEW060,0.00,0.00,VWS V14.00,2013-01-12 05:16:00,
2013-01-12 00:21:00,73.6,68.8,30.11,SSE,155,5.0,6.0,85,0.00,,FEW060,0.00,0.00,VWS V14.00,2013-01-12 05:21:00,
2013-01-12 00:26:00,73.7,68.9,30.11,SSE,157,0.0,2.0,85,0.00,,FEW060,0.00,0.00,VWS V14.00,2013-01-12 05:26:00,
2013-01-12 00:31:00,73.8,69.0,30.11,SSE,157,0.0,1.0,85,0.00,,FEW060,0.00,0.00,VWS V14.00,2013-01-12 05:31:00,
2013-01-12 00:36:00,73.9,69.1,30.11,SSE,156,4.0,4.0,85,0.00,,FEW060,0.00,0.00,VWS V14.00,2013-01-12 05:36:00,
2013-01-12 00:41:00,73.9,69.1,30.11,SSE,156,0.0,4.0,85,0.00,,FEW060,0.00,0.00,VWS V14.00,2013-01-12 05:41:00,
2013-01-12 00:46:00,74.0,69.2,30.11,SSE,156,3.0,5.0,85,0.00,,FEW060,0.00,0.00,VWS V14.00,2013-01-12 05:46:00,
2013-01-12 00:51:00,74.0,69.6,30.11,SSE,155,3.0,6.0,86,0.00,,FEW060,0.00,0.00,VWS V14.00,2013-01-12 05:51:00,
2013-01-12 00:56:00,74.0,69.6,30.11,SSE,148,5.0,5.0,86,0.00,,FEW060,0.00,0.00,VWS V14.00,2013-01-12 05:56:00,
2013-01-12 01:01:00,74.0,69.6,30.11,SSE,147,2.0,3.0,86,0.00,,FEW060,0.00,0.00,VWS V14.00,2013-01-12 06:01:00,
2013-01-12 01:06:00,74.0,69.6,30.11,SSE,147,0.0,0.0,86,0.00,,FEW060,0.00,0.00,VWS V14.00,2013-01-12 06:06:00,
2013-01-12 01:11:00,74.0,69.6,30.11,SSE,147,1.0,5.0,86,0.00,,FEW060,0.00,0.00,VWS V14.00,2013-01-12 06:11:00,
2013-01-12 01:16:00,74.0,69.6,30.11,SE,146,1.0,6.0,86,0.00,,FEW060,0.00,0.00,VWS V14.00,2013-01-12 06:16:00,
2013-01-12 01:21:00,74.0,69.6,30.11,SSE,148,3.0,3.0,86,0.00,,FEW060,0.00,0.00,VWS V14.00,2013-01-12 06:21:00,
2013-01-12 01:27:00,74.0,69.6,30.11,SSE,149,3.0,4.0,86,0.00,,FEW060,0.00,0.00,VWS V14.00,2013-01-12 06:27:00,
2013-01-12 01:32:00,74.0,69.6,30.11,SSE,149,1.0,1.0,86,0.00,,FEW060,0.00,0.00,VWS V14.00,2013-01-12 06:32:00,
2013-01-12 01:37:00,73.9,69.4,30.11,SSE,150,2.0,7.0,86,0.00,,FEW060,0.00,0.00,VWS V14.00,2013-01-12 06:37:00,
2013-01-12 01:42:00,73.9,69.4,30.11,SSE,152,3.0,5.0,86,0.00,,FEW060,0.00,0.00,VWS V14.00,2013-01-12 06:42:00,
2013-01-12 01:47:00,73.9,69.4,30.11,SSE,152,1.0,1.0,86,0.00,,FEW060,0.00,0.00,VWS V14.00,2013-01-12 06:47:00,
2013-01-12 01:52:00,73.9,69.1,30.11,SSE,152,0.0,3.0,85,0.00,,FEW060,0.00,0.00,VWS V14.00,2013-01-12 06:52:00,
2013-01-12 01:57:00,73.8,68.7,30.10,SSE,152,0.0,0.0,84,0.00,,FEW060,0.00,0.00,VWS V14.00,2013-01-12 06:57:00,
2013-01-12 02:02:00,73.8,68.7,30.10,SSE,152,2.0,2.0,84,0.00,,FEW060,0.00,0.00,VWS V14.00,2013-01-12 07:02:00,
2013-01-12 02:07:00,73.8,68.7,30.10,SSE,152,1.0,4.0,84,0.00,,FEW060,0.00,0.00,VWS V14.00,2013-01-12 07:07:00,
2013-01-12 02:12:00,73.9,68.4,30.10,SSE,153,0.0,1.0,83,0.00,,FEW060,0.00,0.00,VWS V14.00,2013-01-12 07:12:00,
2013-01-12 02:17:00,73.9,68.4,30.10,SSE,152,3.0,3.0,83,0.00,,FEW060,0.00,0.00,VWS V14.00,2013-01-12 07:17:00,
2013-01-12 02:22:00,73.9,68.4,30.10,SSE,152,3.0,3.0,83,0.00,,FEW060,0.00,0.00,VWS V14.00,2013-01-12 07:22:00,
2013-01-12 02:27:00,73.9,68.4,30.10,SSE,152,2.0,4.0,83,0.00,,FEW060,0.00,0.00,VWS V14.00,2013-01-12 07:27:00,
2013-01-12 02:32:00,73.9,68.4,30.10,SSE,152,0.0,4.0,83,0.00,,FEW060,0.00,0.00,VWS V14.00,2013-01-12 07:32:00,
2013-01-12 02:37:00,73.9,68.4,30.10,SSE,152,0.0,1.0,83,0.00,,FEW060,0.00,0.00,VWS V14.00,2013-01-12 07:37:00,
2013-01-12 02:42:00,73.9,68.4,30.10,SSE,152,0.0,0.0,83,0.00,,FEW060,0.00,0.00,VWS V14.00,2013-01-12 07:42:00,
2013-01-12 02:47:00,73.8,68.3,30.10,SSE,152,0.0,1.0,83,0.00,,FEW060,0.00,0.00,VWS V14.00,2013-01-12 07:47:00,
2013-01-12 02:52:00,73.7,68.2,30.09,SSE,152,0.0,0.0,83,0.00,,FEW060,0.00,0.00,VWS V14.00,2013-01-12 07:52:00,
2013-01-12 02:57:00,73.6,68.1,30.09,SSE,152,0.0,0.0,83,0.00,,FEW060,0.00,0.00,VWS V14.00,2013-01-12 07:57:00,
2013-01-12 03:02:00,73.5,68.0,30.09,SSE,152,0.0,1.0,83,0.00,,FEW060,0.00,0.00,VWS V14.00,2013-01-12 08:02:00,
2013-01-12 03:07:00,73.4,68.3,30.09,SSE,152,0.0,1.0,84,0.00,,FEW060,0.00,0.00,VWS V14.00,2013-01-12 08:07:00,
2013-01-12 03:12:00,73.3,68.2,30.09,SSE,152,2.0,4.0,84,0.00,,FEW060,0.00,0.00,VWS V14.00,2013-01-12 08:12:00,
2013-01-12 03:17:00,73.2,68.1,30.09,SSE,152,0.0,0.0,84,0.00,,FEW060,0.00,0.00,VWS V14.00,2013-01-12 08:17:00,
2013-01-12 03:22:00,73.2,68.4,30.08,SSE,152,0.0,3.0,85,0.00,,FEW060,0.00,0.00,VWS V14.00,2013-01-12 08:22:00,
2013-01-12 03:27:00,73.2,68.4,30.08,SSE,152,3.0,3.0,85,0.00,,FEW060,0.00,0.00,VWS V14.00,2013-01-12 08:27:00,
2013-01-12 03:32:00,73.2,68.4,30.08,SSE,152,3.0,5.0,85,0.00,,FEW060,0.00,0.00,VWS V14.00,2013-01-12 08:32:00,
2013-01-12 03:37:00,73.2,68.4,30.08,SSE,152,1.0,4.0,85,0.00,,FEW060,0.00,0.00,VWS V14.00,2013-01-12 08:37:00,
2013-01-12 03:42:00,73.2,68.1,30.08,SSE,152,1.0,2.0,84,0.00,,FEW060,0.00,0.00,VWS V14.00,2013-01-12 08:42:00,
2013-01-12 03:47:00,73.1,68.0,30.09,SSE,152,1.0,3.0,84,0.00,,FEW060,0.00,0.00,VWS V14.00,2013-01-12 08:47:00,
2013-01-12 03:52:00,73.2,68.1,30.09,SSE,152,0.0,1.0,84,0.00,,FEW060,0.00,0.00,VWS V14.00,2013-01-12 08:52:00,
2013-01-12 03:57:00,73.2,68.1,30.08,SSE,152,0.0,1.0,84,0.00,,FEW060,0.00,0.00,VWS V14.00,2013-01-12 08:57:00,
2013-01-12 04:02:00,73.3,68.2,30.08,SSE,152,0.0,1.0,84,0.00,,FEW060,0.00,0.00,VWS V14.00,2013-01-12 09:02:00,
2013-01-12 04:07:00,73.3,68.2,30.08,SSE,152,0.0,0.0,84,0.00,,FEW060,0.00,0.00,VWS V14.00,2013-01-12 09:07:00,
2013-01-12 04:12:00,73.3,68.2,30.09,SSE,152,0.0,0.0,84,0.00,,FEW060,0.00,0.00,VWS V14.00,2013-01-12 09:12:00,
2013-01-12 04:17:00,73.3,68.2,30.08,SSE,152,0.0,0.0,84,0.00,,FEW060,0.00,0.00,VWS V14.00,2013-01-12 09:17:00,
2013-01-12 04:22:00,73.2,68.1,30.08,SSE,152,0.0,0.0,84,0.00,,FEW060,0.00,0.00,VWS V14.00,2013-01-12 09:22:00,
2013-01-12 04:27:00,73.2,68.1,30.08,SSE,152,0.0,0.0,84,0.00,,FEW060,0.00,0.00,VWS V14.00,2013-01-12 09:27:00,
2013-01-12 04:32:00,73.1,68.3,30.08,SSE,152,0.0,0.0,85,0.00,,FEW060,0.00,0.00,VWS V14.00,2013-01-12 09:32:00,
2013-01-12 04:37:00,73.0,68.2,30.09,SSE,152,0.0,0.0,85,0.00,,FEW060,0.00,0.00,VWS V14.00,2013-01-12 09:37:00,
2013-01-12 04:42:00,73.0,68.2,30.08,SSE,152,0.0,0.0,85,0.00,,FEW060,0.00,0.00,VWS V14.00,2013-01-12 09:42:00,
2013-01-12 04:47:00,72.9,68.1,30.08,SSE,152,0.0,0.0,85,0.00,,FEW060,0.00,0.00,VWS V14.00,2013-01-12 09:47:00,
2013-01-12 04:52:00,72.8,68.0,30.08,SSE,152,0.0,0.0,85,0.00,,FEW060,0.00,0.00,VWS V14.00,2013-01-12 09:52:00,
2013-01-12 04:57:00,72.7,68.3,30.08,SSE,152,0.0,0.0,86,0.00,,FEW060,0.00,0.00,VWS V14.00,2013-01-12 09:57:00,
2013-01-12 05:02:00,72.6,68.2,30.08,SSE,152,0.0,0.0,86,0.00,,FEW060,0.00,0.00,VWS V14.00,2013-01-12 10:02:00,
2013-01-12 05:07:00,72.5,68.1,30.08,SSE,152,0.0,0.0,86,0.00,,FEW060,0.00,0.00,VWS V14.00,2013-01-12 10:07:00,
2013-01-12 05:12:00,72.4,68.0,30.08,SSE,152,0.0,0.0,86,0.00,,FEW060,0.00,0.00,VWS V14.00,2013-01-12 10:12:00,
2013-01-12 05:17:00,72.4,68.3,30.08,SSE,152,0.0,0.0,87,0.00,,FEW060,0.00,0.00,VWS V14.00,2013-01-12 10:17:00,
2013-01-12 05:22:00,72.3,68.2,30.08,SSE,152,0.0,0.0,87,0.00,,FEW060,0.00,0.00,VWS V14.00,2013-01-12 10:22:00,
2013-01-12 05:27:00,72.2,68.1,30.08,SSE,152,0.0,0.0,87,0.00,,FEW060,0.00,0.00,VWS V14.00,2013-01-12 10:27:00,
2013-01-12 05:32:00,72.2,68.1,30.08,SSE,152,1.0,4.0,87,0.00,,FEW060,0.00,0.00,VWS V14.00,2013-01-12 10:32:00,
2013-01-12 05:37:00,72.4,68.3,30.08,SSE,152,0.0,1.0,87,0.00,,FEW060,0.00,0.00,VWS V14.00,2013-01-12 10:37:00,
2013-01-12 05:42:00,72.5,68.4,30.08,SSE,152,0.0,1.0,87,0.00,,FEW060,0.00,0.00,VWS V14.00,2013-01-12 10:42:00,
2013-01-12 05:47:00,72.6,68.5,30.08,SSE,152,0.0,0.0,87,0.00,,FEW060,0.00,0.00,VWS V14.00,2013-01-12 10:47:00,
2013-01-12 05:52:00,72.7,68.6,30.08,SSE,152,0.0,0.0,87,0.00,,FEW060,0.00,0.00,VWS V14.00,2013-01-12 10:52:00,
2013-01-12 05:57:00,72.8,68.4,30.08,SSE,152,2.0,2.0,86,0.00,,FEW060,0.00,0.00,VWS V14.00,2013-01-12 10:57:00,
2013-01-12 06:02:00,72.8,68.4,30.09,SSE,152,0.0,0.0,86,0.00,,FEW060,0.00,0.00,VWS V14.00,2013-01-12 11:02:00,
2013-01-12 06:07:00,72.8,68.4,30.09,SSE,152,0.0,0.0,86,0.00,,FEW060,0.00,0.00,VWS V14.00,2013-01-12 11:07:00,
2013-01-12 06:12:00,72.8,68.4,30.09,SSE,152,0.0,0.0,86,0.00,,FEW060,0.00,0.00,VWS V14.00,2013-01-12 11:12:00,
2013-01-12 06:17:00,72.7,68.3,30.09,SSE,152,0.0,0.0,86,0.00,,FEW060,0.00,0.00,VWS V14.00,2013-01-12 11:17:00,
2013-01-12 06:22:00,72.6,68.5,30.10,SSE,152,0.0,0.0,87,0.00,,FEW060,0.00,0.00,VWS V14.00,2013-01-12 11:22:00,
2013-01-12 06:27:00,72.6,68.5,30.10,SSE,152,0.0,0.0,87,0.00,,FEW060,0.00,0.00,VWS V14.00,2013-01-12 11:27:00,
2013-01-12 06:32:00,72.5,68.4,30.10,SSE,152,0.0,0.0,87,0.00,,FEW060,0.00,0.00,VWS V14.00,2013-01-12 11:32:00,
2013-01-12 06:37:00,72.3,68.2,30.10,SSE,152,0.0,0.0,87,0.00,,FEW060,0.00,0.00,VWS V14.00,2013-01-12 11:37:00,
2013-01-12 06:42:00,72.2,68.1,30.11,SSE,152,0.0,0.0,87,0.00,,FEW060,0.00,0.00,VWS V14.00,2013-01-12 11:42:00,
2013-01-12 06:47:00,72.1,68.0,30.10,SSE,152,0.0,0.0,87,0.00,,FEW060,0.00,0.00,VWS V14.00,2013-01-12 11:47:00,
2013-01-12 06:53:00,72.0,68.3,30.10,SSE,152,0.0,0.0,88,0.00,,FEW060,0.00,0.00,VWS V14.00,2013-01-12 11:53:00,
2013-01-12 06:58:00,71.8,68.1,30.11,SSE,152,0.0,0.0,88,0.00,,FEW060,0.00,0.00,VWS V14.00,2013-01-12 11:58:00,
2013-01-12 07:03:00,71.6,67.9,30.11,SSE,152,0.0,0.0,88,0.00,,FEW060,0.00,0.00,VWS V14.00,2013-01-12 12:03:00,
2013-01-12 07:08:00,71.5,67.8,30.10,SSE,152,0.0,0.0,88,0.00,,FEW060,0.00,0.00,VWS V14.00,2013-01-12 12:08:00,
2013-01-12 07:13:00,71.4,67.7,30.10,SSE,152,0.0,0.0,88,0.00,,FEW060,0.00,0.00,VWS V14.00,2013-01-12 12:13:00,
2013-01-12 07:18:00,71.3,67.9,30.11,SSE,152,0.0,0.0,89,0.00,,FEW060,0.00,0.00,VWS V14.00,2013-01-12 12:18:00,
2013-01-12 07:23:00,71.3,67.9,30.11,SSE,152,0.0,0.0,89,0.00,,FEW060,0.00,0.00,VWS V14.00,2013-01-12 12:23:00,
2013-01-12 07:28:00,71.5,68.1,30.11,SSE,152,0.0,0.0,89,0.00,,FEW060,0.00,0.00,VWS V14.00,2013-01-12 12:28:00,
2013-01-12 07:33:00,71.3,67.9,30.11,SSE,152,0.0,0.0,89,0.00,,FEW060,0.00,0.00,VWS V14.00,2013-01-12 12:33:00,
2013-01-12 07:38:00,71.1,67.7,30.11,SSE,152,0.0,0.0,89,0.00,,FEW060,0.00,7.00,VWS V14.00,2013-01-12 12:38:00,
2013-01-12 07:43:00,71.1,67.7,30.11,SSE,152,0.0,0.0,89,0.00,,FEW060,0.00,11.00,VWS V14.00,2013-01-12 12:43:00,
2013-01-12 07:48:00,71.1,67.7,30.11,SSE,152,0.0,0.0,89,0.00,,FEW060,0.00,9.00,VWS V14.00,2013-01-12 12:48:00,
2013-01-12 07:53:00,71.2,68.1,30.12,SSE,152,0.0,0.0,90,0.00,,FEW060,0.00,9.00,VWS V14.00,2013-01-12 12:53:00,
2013-01-12 07:58:00,71.2,68.1,30.12,SSE,152,0.0,0.0,90,0.00,,FEW060,0.00,9.00,VWS V14.00,2013-01-12 12:58:00,
2013-01-12 08:03:00,71.3,68.2,30.12,SSE,152,0.0,0.0,90,0.00,,FEW060,0.00,11.00,VWS V14.00,2013-01-12 13:03:00,
2013-01-12 08:08:00,71.4,68.3,30.12,SSE,152,0.0,0.0,90,0.00,,FEW060,0.00,9.00,VWS V14.00,2013-01-12 13:08:00,
2013-01-12 08:13:00,71.7,68.6,30.12,SSE,152,0.0,0.0,90,0.00,,FEW060,0.00,21.00,VWS V14.00,2013-01-12 13:13:00,
2013-01-12 08:18:00,71.9,68.8,30.12,SSE,153,0.0,0.0,90,0.00,,FEW060,0.00,25.00,VWS V14.00,2013-01-12 13:18:00,
2013-01-12 08:23:00,72.0,68.9,30.12,SSE,155,0.0,0.0,90,0.00,,FEW060,0.00,18.00,VWS V14.00,2013-01-12 13:23:00,
2013-01-12 08:28:00,72.1,69.0,30.12,SSE,155,0.0,0.0,90,0.00,,FEW060,0.00,21.00,VWS V14.00,2013-01-12 13:28:00,
2013-01-12 08:33:00,72.3,68.9,30.12,SSE,155,0.0,0.0,89,0.00,,-RA,0.00,30.00,VWS V14.00,2013-01-12 13:33:00,
2013-01-12 08:38:00,72.6,69.2,30.12,SSE,155,0.0,2.0,89,0.00,,-RA,0.00,18.00,VWS V14.00,2013-01-12 13:38:00,
2013-01-12 08:43:00,72.8,69.4,30.12,SSE,155,0.0,0.0,89,0.00,,-RA,0.00,12.00,VWS V14.00,2013-01-12 13:43:00,
2013-01-12 08:48:00,73.0,69.2,30.12,SSE,164,6.0,10.0,88,0.00,,-RA,0.00,12.00,VWS V14.00,2013-01-12 13:48:00,
2013-01-12 08:53:00,73.3,69.2,30.13,SSE,156,9.0,17.0,87,0.00,,-RA,0.00,18.00,VWS V14.00,2013-01-12 13:53:00,
2013-01-12 08:58:00,73.1,69.0,30.13,SSE,157,0.0,5.0,87,0.00,,-RA,0.00,49.00,VWS V14.00,2013-01-12 13:58:00,
2013-01-12 09:03:00,73.2,69.4,30.13,SE,146,0.0,1.0,88,0.00,,-RA,0.01,90.00,VWS V14.00,2013-01-12 14:03:00,
2013-01-12 09:08:00,73.4,69.6,30.13,SE,146,0.0,0.0,88,0.00,,-RA,0.01,42.00,VWS V14.00,2013-01-12 14:08:00,
2013-01-12 09:13:00,73.4,69.6,30.13,SSE,148,0.0,0.0,88,0.00,,-RA,0.01,54.00,VWS V14.00,2013-01-12 14:13:00,
2013-01-12 09:18:00,73.5,69.7,30.13,SSE,150,2.0,6.0,88,0.00,,-RA,0.01,26.00,VWS V14.00,2013-01-12 14:18:00,
2013-01-12 09:23:00,73.4,69.6,30.14,SSE,158,4.0,8.0,88,0.00,,-RA,0.01,25.00,VWS V14.00,2013-01-12 14:23:00,
2013-01-12 09:28:00,73.5,69.4,30.14,SSE,157,6.0,7.0,87,0.00,,-RA,0.01,28.00,VWS V14.00,2013-01-12 14:28:00,
2013-01-12 09:33:00,73.5,69.4,30.14,SSE,157,4.0,5.0,87,0.00,,SCT018,0.02,47.00,VWS V14.00,2013-01-12 14:33:00,
2013-01-12 09:38:00,73.8,69.7,30.14,SSE,161,4.0,9.0,87,0.00,,SCT018,0.02,51.00,VWS V14.00,2013-01-12 14:38:00,
2013-01-12 09:43:00,74.0,69.6,30.14,SSE,167,5.0,7.0,86,0.00,,SCT018,0.02,46.00,VWS V14.00,2013-01-12 14:43:00,
2013-01-12 09:48:00,74.2,69.8,30.14,South,169,4.0,6.0,86,0.00,,SCT018,0.02,53.00,VWS V14.00,2013-01-12 14:48:00,
2013-01-12 09:53:00,74.6,69.8,30.14,SSE,159,0.0,7.0,85,0.00,,SCT018,0.02,109.00,VWS V14.00,2013-01-12 14:53:00,
2013-01-12 09:58:00,74.9,69.0,30.14,SSE,151,9.0,12.0,82,0.00,,SCT018,0.02,95.00,VWS V14.00,2013-01-12 14:58:00,
2013-01-12 10:03:00,75.5,69.3,30.14,South,171,7.0,9.0,81,0.00,,SCT018,0.02,70.00,VWS V14.00,2013-01-12 15:03:00,
2013-01-12 10:08:00,75.9,69.3,30.14,SSE,162,5.0,6.0,80,0.00,,SCT018,0.02,93.00,VWS V14.00,2013-01-12 15:08:00,
2013-01-12 10:14:00,76.2,69.2,30.14,South,190,4.0,12.0,79,0.00,,SCT018,0.03,84.00,VWS V14.00,2013-01-12 15:14:00,
2013-01-12 10:19:00,76.1,68.8,30.13,South,173,8.0,13.0,78,0.00,,SCT018,0.03,88.00,VWS V14.00,2013-01-12 15:19:00,
2013-01-12 10:24:00,76.4,69.4,30.14,SSE,159,2.0,7.0,79,0.00,,SCT018,0.03,123.00,VWS V14.00,2013-01-12 15:24:00,
2013-01-12 10:29:00,76.8,69.4,30.13,SSE,155,6.0,13.0,78,0.00,,SCT018,0.03,134.00,VWS V14.00,2013-01-12 15:29:00,
2013-01-12 10:34:00,76.8,69.1,30.13,SSE,155,4.0,7.0,77,0.00,,SCT023,0.03,79.00,VWS V14.00,2013-01-12 15:34:00,
2013-01-12 10:39:00,76.7,68.9,30.13,South,176,3.0,5.0,77,0.00,,SCT023,0.03,56.00,VWS V14.00,2013-01-12 15:39:00,
2013-01-12 10:44:00,76.5,68.8,30.13,SE,136,0.0,5.0,77,0.00,,SCT023,0.03,62.00,VWS V14.00,2013-01-12 15:44:00,
2013-01-12 10:49:00,76.4,68.7,30.12,SE,140,10.0,11.0,77,0.00,,SCT023,0.03,62.00,VWS V14.00,2013-01-12 15:49:00,
2013-01-12 10:54:00,76.4,68.7,30.12,SSE,150,6.0,10.0,77,0.00,,SCT023,0.03,74.00,VWS V14.00,2013-01-12 15:54:00,
2013-01-12 10:59:00,76.5,68.4,30.12,SSE,160,6.0,11.0,76,0.00,,SCT023,0.03,72.00,VWS V14.00,2013-01-12 15:59:00,
2013-01-12 11:04:00,76.6,68.9,30.12,SSE,150,5.0,11.0,77,0.00,,SCT023,0.03,74.00,VWS V14.00,2013-01-12 16:04:00,
2013-01-12 11:09:00,76.7,68.9,30.12,SE,146,4.0,10.0,77,0.00,,SCT023,0.03,70.00,VWS V14.00,2013-01-12 16:09:00,
2013-01-12 11:14:00,76.6,68.9,30.11,SE,146,5.0,5.0,77,0.00,,SCT023,0.03,81.00,VWS V14.00,2013-01-12 16:14:00,
2013-01-12 11:19:00,76.6,68.1,30.11,SSE,167,12.0,13.0,75,0.00,,SCT023,0.03,121.00,VWS V14.00,2013-01-12 16:19:00,
2013-01-12 11:24:00,77.1,68.2,30.11,South,178,4.0,7.0,74,0.00,,SCT023,0.03,84.00,VWS V14.00,2013-01-12 16:24:00,
2013-01-12 11:29:00,77.1,68.2,30.11,SE,144,10.0,12.0,74,0.00,,SCT023,0.03,90.00,VWS V14.00,2013-01-12 16:29:00,
2013-01-12 11:34:00,77.0,67.7,30.11,SSE,152,5.0,9.0,73,0.00,,SCT023,0.03,93.00,VWS V14.00,2013-01-12 16:34:00,
2013-01-12 11:39:00,77.2,68.3,30.11,SSE,155,6.0,11.0,74,0.00,,SCT023,0.03,91.00,VWS V14.00,2013-01-12 16:39:00,
2013-01-12 11:44:00,77.1,68.2,30.10,SSE,165,8.0,10.0,74,0.00,,SCT023,0.03,74.00,VWS V14.00,2013-01-12 16:44:00,
2013-01-12 11:49:00,76.8,67.9,30.10,SSE,163,10.0,14.0,74,0.00,,SCT023,0.03,83.00,VWS V14.00,2013-01-12 16:49:00,
2013-01-12 11:54:00,76.7,67.8,30.09,South,180,4.0,11.0,74,0.00,,SCT023,0.03,79.00,VWS V14.00,2013-01-12 16:54:00,
2013-01-12 11:59:00,76.8,68.3,30.09,SSE,157,4.0,9.0,75,0.00,,SCT023,0.03,79.00,VWS V14.00,2013-01-12 16:59:00,
2013-01-12 12:04:00,76.8,67.9,30.09,SSE,160,4.0,12.0,74,0.00,,SCT023,0.03,74.00,VWS V14.00,2013-01-12 17:04:00,
2013-01-12 12:09:00,76.9,68.8,30.09,SE,131,4.0,5.0,76,0.00,,SCT023,0.03,65.00,VWS V14.00,2013-01-12 17:09:00,
2013-01-12 12:14:00,76.7,68.9,30.08,SE,125,3.0,10.0,77,0.00,,SCT023,0.03,67.00,VWS V14.00,2013-01-12 17:14:00,
2013-01-12 12:19:00,76.6,68.9,30.08,SE,146,5.0,11.0,77,0.00,,SCT023,0.03,65.00,VWS V14.00,2013-01-12 17:19:00,
2013-01-12 12:24:00,76.5,68.8,30.08,SE,142,7.0,10.0,77,0.00,,SCT023,0.03,77.00,VWS V14.00,2013-01-12 17:24:00,
2013-01-12 12:29:00,76.5,68.4,30.08,ESE,120,4.0,10.0,76,0.00,,SCT023,0.03,72.00,VWS V14.00,2013-01-12 17:29:00,
2013-01-12 12:34:00,76.6,68.1,30.08,SE,142,2.0,6.0,75,0.00,,SCT018,0.03,62.00,VWS V14.00,2013-01-12 17:34:00,
2013-01-12 12:39:00,76.6,68.1,30.08,SE,133,9.0,10.0,75,0.00,,SCT018,0.03,58.00,VWS V14.00,2013-01-12 17:39:00,
2013-01-12 12:44:00,76.5,68.4,30.08,SSE,148,9.0,11.0,76,0.00,,SCT018,0.03,76.00,VWS V14.00,2013-01-12 17:44:00,
2013-01-12 12:49:00,76.7,68.6,30.08,ESE,123,2.0,8.0,76,0.00,,SCT018,0.03,88.00,VWS V14.00,2013-01-12 17:49:00,
2013-01-12 12:54:00,76.8,68.3,30.08,SE,142,5.0,10.0,75,0.00,,SCT018,0.03,79.00,VWS V14.00,2013-01-12 17:54:00,
2013-01-12 12:59:00,76.9,68.4,30.07,SE,139,9.0,9.0,75,0.00,,SCT018,0.03,74.00,VWS V14.00,2013-01-12 17:59:00,
2013-01-12 13:04:00,76.8,67.9,30.07,SE,125,4.0,10.0,74,0.00,,SCT018,0.03,93.00,VWS V14.00,2013-01-12 18:04:00,
2013-01-12 13:09:00,77.0,68.5,30.07,SE,138,7.0,8.0,75,0.00,,SCT018,0.03,70.00,VWS V14.00,2013-01-12 18:09:00,
2013-01-12 13:14:00,77.3,68.4,30.07,ESE,118,5.0,11.0,74,0.00,,SCT018,0.03,63.00,VWS V14.00,2013-01-12 18:14:00,
2013-01-12 13:19:00,77.3,68.0,30.07,SSE,152,3.0,5.0,73,0.00,,SCT018,0.03,62.00,VWS V14.00,2013-01-12 18:19:00,
2013-01-12 13:24:00,77.0,67.7,30.07,SSE,152,2.0,7.0,73,0.00,,SCT018,0.03,60.00,VWS V14.00,2013-01-12 18:24:00,
2013-01-12 13:29:00,76.9,68.0,30.07,SE,138,0.0,6.0,74,0.00,,SCT018,0.03,54.00,VWS V14.00,2013-01-12 18:29:00,
2013-01-12 13:34:00,76.9,67.6,30.06,SSE,147,2.0,8.0,73,0.00,,SCT018,0.03,54.00,VWS V14.00,2013-01-12 18:34:00,
2013-01-12 13:39:00,76.9,67.6,30.06,South,170,8.0,14.0,73,0.00,,SCT018,0.03,151.00,VWS V14.00,2013-01-12 18:39:00,
2013-01-12 13:44:00,77.6,67.9,30.06,SSE,162,4.0,9.0,72,0.00,,SCT018,0.03,142.00,VWS V14.00,2013-01-12 18:44:00,
2013-01-12 13:49:00,78.1,67.9,30.06,SSE,157,6.0,12.0,71,0.00,,SCT018,0.03,53.00,VWS V14.00,2013-01-12 18:49:00,
2013-01-12 13:54:00,77.7,67.1,30.06,SSE,153,9.0,9.0,70,0.00,,SCT018,0.03,132.00,VWS V14.00,2013-01-12 18:54:00,
2013-01-12 13:59:00,77.8,66.8,30.06,SSE,147,5.0,7.0,69,0.00,,SCT018,0.03,56.00,VWS V14.00,2013-01-12 18:59:00,
2013-01-12 14:04:00,77.8,67.2,30.05,SSE,164,13.0,13.0,70,0.00,,SCT018,0.03,60.00,VWS V14.00,2013-01-12 19:04:00,
2013-01-12 14:09:00,77.8,67.2,30.06,SSE,155,9.0,11.0,70,0.00,,SCT018,0.03,70.00,VWS V14.00,2013-01-12 19:09:00,
2013-01-12 14:14:00,77.9,67.3,30.05,SSE,153,4.0,9.0,70,0.00,,SCT018,0.03,46.00,VWS V14.00,2013-01-12 19:14:00,
2013-01-12 14:19:00,77.6,67.5,30.05,SE,142,6.0,8.0,71,0.00,,SCT018,0.03,60.00,VWS V14.00,2013-01-12 19:19:00,
2013-01-12 14:24:00,77.7,68.0,30.05,ESE,123,7.0,7.0,72,0.00,,SCT018,0.03,130.00,VWS V14.00,2013-01-12 19:24:00,
2013-01-12 14:29:00,77.9,67.8,30.05,SE,130,5.0,10.0,71,0.00,,SCT018,0.03,54.00,VWS V14.00,2013-01-12 19:29:00,
2013-01-12 14:34:00,77.6,67.9,30.05,ESE,113,7.0,11.0,72,0.00,,SCT040,0.03,125.00,VWS V14.00,2013-01-12 19:34:00,
2013-01-12 14:39:00,77.5,68.2,30.05,SSE,155,5.0,9.0,73,0.00,,SCT040,0.03,46.00,VWS V14.00,2013-01-12 19:39:00,
2013-01-12 14:44:00,77.1,67.8,30.05,SE,126,7.0,12.0,73,0.00,,SCT040,0.03,39.00,VWS V14.00,2013-01-12 19:44:00,
2013-01-12 14:49:00,76.9,68.0,30.05,SE,125,2.0,8.0,74,0.00,,SCT040,0.03,97.00,VWS V14.00,2013-01-12 19:49:00,
2013-01-12 14:54:00,77.1,67.4,30.05,SSE,156,5.0,10.0,72,0.00,,SCT040,0.03,105.00,VWS V14.00,2013-01-12 19:54:00,
2013-01-12 14:59:00,77.3,67.2,30.05,SSE,163,4.0,9.0,71,0.00,,SCT040,0.03,49.00,VWS V14.00,2013-01-12 19:59:00,
2013-01-12 15:04:00,77.5,67.4,30.05,SSE,153,6.0,9.0,71,0.00,,SCT040,0.03,114.00,VWS V14.00,2013-01-12 20:04:00,
2013-01-12 15:09:00,77.6,67.5,30.05,SE,130,6.0,9.0,71,0.00,,SCT040,0.03,47.00,VWS V14.00,2013-01-12 20:09:00,
2013-01-12 15:14:00,77.3,67.6,30.05,SSE,163,6.0,9.0,72,0.00,,SCT040,0.03,42.00,VWS V14.00,2013-01-12 20:14:00,
2013-01-12 15:19:00,77.1,67.8,30.05,SSE,165,7.0,9.0,73,0.00,,SCT040,0.03,100.00,VWS V14.00,2013-01-12 20:19:00,
2013-01-12 15:24:00,77.4,67.3,30.05,SSE,155,9.0,11.0,71,0.00,,SCT040,0.03,102.00,VWS V14.00,2013-01-12 20:24:00,
2013-01-12 15:29:00,77.7,67.6,30.05,South,173,6.0,9.0,71,0.00,,SCT040,0.03,97.00,VWS V14.00,2013-01-12 20:29:00,
2013-01-12 15:34:00,77.8,66.8,30.05,SSE,149,2.0,7.0,69,0.00,,SCT040,0.03,47.00,VWS V14.00,2013-01-12 20:34:00,
2013-01-12 15:39:00,77.6,67.1,30.05,SSE,162,9.0,9.0,70,0.00,,SCT040,0.03,56.00,VWS V14.00,2013-01-12 20:39:00,
2013-01-12 15:44:00,77.5,67.4,30.05,SSE,157,3.0,7.0,71,0.00,,SCT040,0.03,44.00,VWS V14.00,2013-01-12 20:44:00,
2013-01-12 15:49:00,77.3,67.6,30.05,SSE,157,0.0,5.0,72,0.00,,SCT040,0.03,42.00,VWS V14.00,2013-01-12 20:49:00,
2013-01-12 15:54:00,77.2,67.5,30.05,SE,146,5.0,12.0,72,0.00,,SCT040,0.03,79.00,VWS V14.00,2013-01-12 20:54:00,
2013-01-12 15:59:00,77.0,66.9,30.05,SE,133,4.0,9.0,71,0.00,,SCT040,0.03,35.00,VWS V14.00,2013-01-12 20:59:00,
2013-01-12 16:04:00,76.9,67.2,30.05,SE,131,4.0,6.0,72,0.00,,SCT040,0.03,70.00,VWS V14.00,2013-01-12 21:04:00,
2013-01-12 16:10:00,76.9,67.2,30.05,ESE,111,8.0,13.0,72,0.00,,SCT040,0.03,28.00,VWS V14.00,2013-01-12 21:10:00,
2013-01-12 16:15:00,76.5,66.8,30.06,SE,146,10.0,12.0,72,0.00,,SCT040,0.03,65.00,VWS V14.00,2013-01-12 21:15:00,
2013-01-12 16:20:00,76.6,67.3,30.06,SE,141,9.0,9.0,73,0.00,,SCT040,0.03,69.00,VWS V14.00,2013-01-12 21:20:00,
2013-01-12 16:25:00,76.8,66.3,30.06,SSE,160,2.0,10.0,70,0.00,,SCT040,0.03,67.00,VWS V14.00,2013-01-12 21:25:00,
2013-01-12 16:30:00,76.9,66.8,30.06,SE,128,6.0,7.0,71,0.00,,SCT040,0.03,60.00,VWS V14.00,2013-01-12 21:30:00,
2013-01-12 16:35:00,76.8,66.7,30.06,SE,126,5.0,12.0,71,0.00,,FEW040,0.03,56.00,VWS V14.00,2013-01-12 21:35:00,
2013-01-12 16:40:00,76.7,67.0,30.06,SE,125,0.0,6.0,72,0.00,,FEW040,0.03,54.00,VWS V14.00,2013-01-12 21:40:00,
2013-01-12 16:45:00,76.8,67.1,30.06,ESE,123,3.0,8.0,72,0.00,,FEW040,0.03,47.00,VWS V14.00,2013-01-12 21:45:00,
2013-01-12 16:50:00,76.7,67.0,30.06,SSE,152,3.0,5.0,72,0.00,,FEW040,0.03,42.00,VWS V14.00,2013-01-12 21:50:00,
2013-01-12 16:55:00,76.7,67.0,30.06,SSE,153,2.0,5.0,72,0.00,,FEW040,0.03,35.00,VWS V14.00,2013-01-12 21:55:00,
2013-01-12 17:00:00,76.6,66.9,30.06,SSE,163,3.0,5.0,72,0.00,,FEW040,0.03,33.00,VWS V14.00,2013-01-12 22:00:00,
2013-01-12 17:05:00,76.5,66.8,30.06,SE,134,3.0,9.0,72,0.00,,FEW040,0.03,33.00,VWS V14.00,2013-01-12 22:05:00,
2013-01-12 17:10:00,76.2,66.5,30.06,SE,138,5.0,7.0,72,0.00,,FEW040,0.03,19.00,VWS V14.00,2013-01-12 22:10:00,
2013-01-12 17:15:00,76.1,66.8,30.06,SE,144,0.0,4.0,73,0.00,,FEW040,0.03,25.00,VWS V14.00,2013-01-12 22:15:00,
2013-01-12 17:20:00,76.0,66.7,30.06,SE,140,0.0,3.0,73,0.00,,FEW040,0.03,28.00,VWS V14.00,2013-01-12 22:20:00,
2013-01-12 17:25:00,75.9,67.0,30.06,SE,141,0.0,3.0,74,0.00,,FEW040,0.03,23.00,VWS V14.00,2013-01-12 22:25:00,
2013-01-12 17:30:00,75.8,66.9,30.06,SSE,151,0.0,4.0,74,0.00,,FEW040,0.03,11.00,VWS V14.00,2013-01-12 22:30:00,
2013-01-12 17:35:00,75.7,66.8,30.06,SSE,151,0.0,1.0,74,0.00,,FEW040,0.03,12.00,VWS V14.00,2013-01-12 22:35:00,
2013-01-12 17:40:00,75.6,66.7,30.06,SSE,151,4.0,4.0,74,0.00,,FEW040,0.03,5.00,VWS V14.00,2013-01-12 22:40:00,
2013-01-12 17:45:00,75.4,66.5,30.06,SSE,151,0.0,6.0,74,0.00,,FEW040,0.03,0.00,VWS V14.00,2013-01-12 22:45:00,
2013-01-12 17:50:00,75.2,66.3,30.07,SSE,151,2.0,5.0,74,0.00,,FEW040,0.03,0.00,VWS V14.00,2013-01-12 22:50:00,
2013-01-12 17:55:00,75.0,66.2,30.07,SSE,151,0.0,4.0,74,0.00,,FEW040,0.03,0.00,VWS V14.00,2013-01-12 22:55:00,
2013-01-12 18:00:00,74.8,66.3,30.07,SSE,151,2.0,3.0,75,0.00,,FEW040,0.03,0.00,VWS V14.00,2013-01-12 23:00:00,
2013-01-12 18:05:00,74.7,66.3,30.07,SSE,151,0.0,0.0,75,0.00,,FEW040,0.03,0.00,VWS V14.00,2013-01-12 23:05:00,
2013-01-12 18:10:00,74.5,66.1,30.07,SSE,151,0.0,0.0,75,0.00,,FEW040,0.03,0.00,VWS V14.00,2013-01-12 23:10:00,
2013-01-12 18:15:00,74.4,66.3,30.07,SSE,151,0.0,0.0,76,0.00,,FEW040,0.03,0.00,VWS V14.00,2013-01-12 23:15:00,
2013-01-12 18:20:00,74.1,66.1,30.07,SSE,151,0.0,0.0,76,0.00,,FEW040,0.03,0.00,VWS V14.00,2013-01-12 23:20:00,
2013-01-12 18:25:00,74.0,66.0,30.07,SSE,151,0.0,1.0,76,0.00,,FEW040,0.03,0.00,VWS V14.00,2013-01-12 23:25:00,
2013-01-12 18:30:00,73.8,66.2,30.07,SSE,151,0.0,0.0,77,0.00,,FEW040,0.03,0.00,VWS V14.00,2013-01-12 23:30:00,
2013-01-12 18:35:00,73.7,66.1,30.07,SSE,151,0.0,0.0,77,0.00,,FEW030,0.03,0.00,VWS V14.00,2013-01-12 23:35:00,
2013-01-12 18:40:00,73.5,65.9,30.08,SSE,151,0.0,0.0,77,0.00,,FEW030,0.03,0.00,VWS V14.00,2013-01-12 23:40:00,
2013-01-12 18:45:00,73.4,66.1,30.08,SSE,151,0.0,0.0,78,0.00,,FEW030,0.03,0.00,VWS V14.00,2013-01-12 23:45:00,
2013-01-12 18:50:00,73.3,66.0,30.08,SSE,151,0.0,0.0,78,0.00,,FEW030,0.03,0.00,VWS V14.00,2013-01-12 23:50:00,
2013-01-12 18:55:00,73.1,65.8,30.08,SSE,151,0.0,0.0,78,0.00,,FEW030,0.03,0.00,VWS V14.00,2013-01-12 23:55:00,
2013-01-12 19:00:00,72.9,66.0,30.08,SSE,151,0.0,0.0,79,0.00,,FEW030,0.03,0.00,VWS V14.00,2013-01-13 00:00:00,
2013-01-12 19:05:00,72.8,65.9,30.08,SSE,151,0.0,0.0,79,0.00,,FEW030,0.03,0.00,VWS V14.00,2013-01-13 00:05:00,
2013-01-12 19:10:00,72.6,66.1,30.08,SSE,151,0.0,0.0,80,0.00,,FEW030,0.03,0.00,VWS V14.00,2013-01-13 00:10:00,
2013-01-12 19:15:00,72.4,65.9,30.08,SSE,151,0.0,0.0,80,0.00,,FEW030,0.03,0.00,VWS V14.00,2013-01-13 00:15:00,
2013-01-12 19:20:00,72.2,66.1,30.08,SSE,151,0.0,0.0,81,0.00,,FEW030,0.03,0.00,VWS V14.00,2013-01-13 00:20:00,
2013-01-12 19:25:00,72.0,65.9,30.08,SSE,151,0.0,0.0,81,0.00,,FEW030,0.03,0.00,VWS V14.00,2013-01-13 00:25:00,
2013-01-12 19:30:00,71.7,65.9,30.08,SSE,151,0.0,0.0,82,0.00,,FEW030,0.03,0.00,VWS V14.00,2013-01-13 00:30:00,
2013-01-12 19:35:00,71.6,65.8,30.08,SSE,151,0.0,0.0,82,0.00,,FEW030,0.03,0.00,VWS V14.00,2013-01-13 00:35:00,
2013-01-12 19:40:00,71.4,66.0,30.08,SSE,151,0.0,0.0,83,0.00,,FEW030,0.03,0.00,VWS V14.00,2013-01-13 00:40:00,
2013-01-12 19:46:00,71.2,65.8,30.08,SSE,151,0.0,0.0,83,0.00,,FEW030,0.03,0.00,VWS V14.00,2013-01-13 00:46:00,
2013-01-12 19:51:00,70.9,65.8,30.08,SSE,151,0.0,0.0,84,0.00,,FEW030,0.03,0.00,VWS V14.00,2013-01-13 00:51:00,
2013-01-12 19:56:00,70.8,66.1,30.08,SSE,151,0.0,0.0,85,0.00,,FEW030,0.03,0.00,VWS V14.00,2013-01-13 00:56:00,
2013-01-12 20:01:00,70.6,65.9,30.08,SSE,151,0.0,0.0,85,0.00,,FEW030,0.03,0.00,VWS V14.00,2013-01-13 01:01:00,
2013-01-12 20:06:00,70.4,65.7,30.09,SSE,151,0.0,0.0,85,0.00,,FEW030,0.03,0.00,VWS V14.00,2013-01-13 01:06:00,
2013-01-12 20:11:00,70.3,65.9,30.08,SSE,151,0.0,0.0,86,0.00,,FEW030,0.03,0.00,VWS V14.00,2013-01-13 01:11:00,
2013-01-12 20:16:00,70.1,65.7,30.08,SSE,151,0.0,0.0,86,0.00,,FEW030,0.03,0.00,VWS V14.00,2013-01-13 01:16:00,
2013-01-12 20:21:00,70.0,65.6,30.08,SSE,151,0.0,0.0,86,0.00,,FEW030,0.03,0.00,VWS V14.00,2013-01-13 01:21:00,
2013-01-12 20:26:00,69.8,65.4,30.09,SSE,151,0.0,0.0,86,0.00,,FEW030,0.03,0.00,VWS V14.00,2013-01-13 01:26:00,
2013-01-12 20:31:00,69.7,65.7,30.09,SSE,151,0.0,0.0,87,0.00,,FEW030,0.03,0.00,VWS V14.00,2013-01-13 01:31:00,
2013-01-12 20:36:00,69.5,65.5,30.09,SSE,151,0.0,0.0,87,0.00,,FEW030,0.03,0.00,VWS V14.00,2013-01-13 01:36:00,
2013-01-12 20:41:00,69.3,65.3,30.09,SSE,151,0.0,0.0,87,0.00,,FEW030,0.03,0.00,VWS V14.00,2013-01-13 01:41:00,
2013-01-12 20:46:00,69.1,65.1,30.08,SSE,151,0.0,0.0,87,0.00,,FEW030,0.03,0.00,VWS V14.00,2013-01-13 01:46:00,
2013-01-12 20:51:00,69.0,65.0,30.08,SSE,151,0.0,0.0,87,0.00,,FEW030,0.03,0.00,VWS V14.00,2013-01-13 01:51:00,
2013-01-12 20:56:00,69.0,65.3,30.08,SSE,151,0.0,0.0,88,0.00,,FEW030,0.03,0.00,VWS V14.00,2013-01-13 01:56:00,
2013-01-12 21:01:00,69.0,65.3,30.08,SSE,151,0.0,0.0,88,0.00,,FEW030,0.03,0.00,VWS V14.00,2013-01-13 02:01:00,
2013-01-12 21:06:00,68.8,65.1,30.08,SSE,151,0.0,0.0,88,0.00,,FEW030,0.03,0.00,VWS V14.00,2013-01-13 02:06:00,
2013-01-12 21:11:00,68.7,65.0,30.08,SSE,151,0.0,0.0,88,0.00,,FEW030,0.03,0.00,VWS V14.00,2013-01-13 02:11:00,
2013-01-12 21:16:00,68.5,64.8,30.08,SSE,151,0.0,0.0,88,0.00,,FEW030,0.03,0.00,VWS V14.00,2013-01-13 02:16:00,
2013-01-12 21:21:00,68.5,65.1,30.09,SSE,151,0.0,0.0,89,0.00,,FEW030,0.03,0.00,VWS V14.00,2013-01-13 02:21:00,
2013-01-12 21:26:00,68.5,65.1,30.08,SSE,151,0.0,0.0,89,0.00,,FEW030,0.03,0.00,VWS V14.00,2013-01-13 02:26:00,
2013-01-12 21:31:00,68.3,64.9,30.08,SSE,151,0.0,0.0,89,0.00,,FEW030,0.03,0.00,VWS V14.00,2013-01-13 02:31:00,
2013-01-12 21:36:00,68.3,64.9,30.08,SSE,151,0.0,0.0,89,0.00,,FEW030,0.03,0.00,VWS V14.00,2013-01-13 02:36:00,
2013-01-12 21:41:00,68.2,64.8,30.08,SSE,151,0.0,0.0,89,0.00,,FEW030,0.03,0.00,VWS V14.00,2013-01-13 02:41:00,
2013-01-12 21:46:00,68.0,64.6,30.08,SSE,151,0.0,0.0,89,0.00,,FEW030,0.03,0.00,VWS V14.00,2013-01-13 02:46:00,
2013-01-12 21:51:00,68.0,64.6,30.07,SSE,151,0.0,0.0,89,0.00,,FEW030,0.03,0.00,VWS V14.00,2013-01-13 02:51:00,
2013-01-12 21:56:00,68.1,65.1,30.07,SSE,151,0.0,0.0,90,0.00,,FEW030,0.03,0.00,VWS V14.00,2013-01-13 02:56:00,
2013-01-12 22:01:00,68.0,65.0,30.07,SSE,151,0.0,0.0,90,0.00,,FEW030,0.03,0.00,VWS V14.00,2013-01-13 03:01:00,
2013-01-12 22:06:00,67.8,64.8,30.07,SSE,151,0.0,0.0,90,0.00,,FEW030,0.03,0.00,VWS V14.00,2013-01-13 03:06:00,
2013-01-12 22:11:00,67.7,64.7,30.07,SSE,151,0.0,0.0,90,0.00,,FEW030,0.03,0.00,VWS V14.00,2013-01-13 03:11:00,
2013-01-12 22:16:00,67.7,64.7,30.07,SSE,151,0.0,0.0,90,0.00,,FEW030,0.03,0.00,VWS V14.00,2013-01-13 03:16:00,
2013-01-12 22:21:00,67.7,64.7,30.07,SSE,151,0.0,0.0,90,0.00,,FEW030,0.03,0.00,VWS V14.00,2013-01-13 03:21:00,
2013-01-12 22:26:00,67.7,64.7,30.07,SSE,151,0.0,0.0,90,0.00,,FEW030,0.03,0.00,VWS V14.00,2013-01-13 03:26:00,
2013-01-12 22:31:00,67.6,64.6,30.07,SSE,151,0.0,0.0,90,0.00,,FEW030,0.03,0.00,VWS V14.00,2013-01-13 03:31:00,
2013-01-12 22:36:00,67.6,64.6,30.07,SSE,151,0.0,0.0,90,0.00,,CLR,0.03,0.00,VWS V14.00,2013-01-13 03:36:00,
2013-01-12 22:41:00,67.6,64.6,30.07,SSE,151,0.0,0.0,90,0.00,,CLR,0.03,0.00,VWS V14.00,2013-01-13 03:41:00,
2013-01-12 22:46:00,67.5,64.5,30.07,SSE,151,0.0,0.0,90,0.00,,CLR,0.03,0.00,VWS V14.00,2013-01-13 03:46:00,
2013-01-12 22:51:00,67.5,64.5,30.07,SSE,151,0.0,0.0,90,0.00,,CLR,0.03,0.00,VWS V14.00,2013-01-13 03:51:00,
2013-01-12 22:56:00,67.4,64.4,30.07,SSE,151,0.0,0.0,90,0.00,,CLR,0.03,0.00,VWS V14.00,2013-01-13 03:56:00,
2013-01-12 23:01:00,67.3,64.3,30.06,SSE,151,0.0,0.0,90,0.00,,CLR,0.03,0.00,VWS V14.00,2013-01-13 04:01:00,
2013-01-12 23:06:00,67.3,64.6,30.06,SSE,151,0.0,0.0,91,0.00,,CLR,0.03,0.00,VWS V14.00,2013-01-13 04:06:00,
2013-01-12 23:11:00,67.2,64.5,30.06,SSE,151,0.0,0.0,91,0.00,,CLR,0.03,0.00,VWS V14.00,2013-01-13 04:11:00,
2013-01-12 23:16:00,67.1,64.4,30.06,SSE,151,0.0,0.0,91,0.00,,CLR,0.03,0.00,VWS V14.00,2013-01-13 04:16:00,
2013-01-12 23:21:00,67.1,64.4,30.06,SSE,151,0.0,0.0,91,0.00,,CLR,0.03,0.00,VWS V14.00,2013-01-13 04:21:00,
2013-01-12 23:26:00,67.1,64.4,30.06,SSE,151,0.0,0.0,91,0.00,,CLR,0.03,0.00,VWS V14.00,2013-01-13 04:26:00,
2013-01-12 23:31:00,67.0,64.3,30.06,SSE,151,0.0,0.0,91,0.00,,CLR,0.03,0.00,VWS V14.00,2013-01-13 04:31:00,
2013-01-12 23:36:00,66.8,64.1,30.06,SSE,151,0.0,0.0,91,0.00,,CLR,0.03,0.00,VWS V14.00,2013-01-13 04:36:00,
2013-01-12 23:41:00,66.8,64.1,30.06,SSE,151,0.0,0.0,91,0.00,,CLR,0.03,0.00,VWS V14.00,2013-01-13 04:41:00,
2013-01-12 23:46:00,66.7,64.0,30.06,SSE,151,0.0,0.0,91,0.00,,CLR,0.03,0.00,VWS V14.00,2013-01-13 04:46:00,
2013-01-12 23:51:00,66.7,64.0,30.06,SSE,151,0.0,0.0,91,0.00,,CLR,0.03,0.00,VWS V14.00,2013-01-13 04:51:00,
2013-01-12 23:56:00,66.7,64.0,30.06,SSE,151,0.0,0.0,91,0.00,,CLR,0.03,0.00,VWS V14.00,2013-01-13 04:56:00,